| time (UTC) | temp C | wind direction | speed KPH | gust KPH | rain 1hr cm | rain 24hr cm | rain mn cm | humidity % | barometer mb |
| 20260503203104 | 15 | 249 | 3.2 | 8.0 | 0.00 | 0.00 | 0.00 | 58 | 1013.5 |
| 20260503201559 | 16 | 214 | 0.0 | 4.8 | 0.00 | 0.00 | 0.00 | 58 | 1013.3 |
| 20260503200100 | 16 | 240 | 1.6 | 8.0 | 0.00 | 0.00 | 0.00 | 57 | 1013.1 |
| 20260503194601 | 16 | 144 | 1.6 | 14.5 | 0.00 | 0.00 | 0.00 | 57 | 1013.0 |
| 20260503193100 | 16 | 141 | 3.2 | 12.9 | 0.00 | 0.00 | 0.00 | 57 | 1012.8 |
| 20260503191559 | 16 | 210 | 0.0 | 8.0 | 0.00 | 0.00 | 0.00 | 59 | 1012.7 |
| 20260503190101 | 16 | 209 | 1.6 | 6.4 | 0.00 | 0.00 | 0.00 | 60 | 1012.5 |
| 20260503184609 | 17 | 221 | 3.2 | 12.9 | 0.00 | 0.00 | 0.00 | 59 | 1012.5 |
| 20260503183102 | 17 | 239 | 0.0 | 9.7 | 0.00 | 0.00 | 0.00 | 59 | 1012.4 |
| 20260503181603 | 17 | 233 | 8.0 | 16.1 | 0.00 | 0.00 | 0.00 | 58 | 1012.4 |
| 20260503180001 | 17 | 222 | 8.0 | 14.5 | 0.00 | 0.00 | 0.00 | 57 | 1012.4 |
| 20260503174620 | 17 | 194 | 4.8 | 16.1 | 0.00 | 0.00 | 0.00 | 57 | 1012.4 |
| 20260503174501 | 17 | 233 | 4.8 | 16.1 | 0.00 | 0.00 | 0.00 | 57 | 1012.5 |
| 20260503173107 | 18 | 231 | 8.0 | 20.9 | 0.00 | 0.00 | 0.00 | 55 | 1012.5 |
| 20260503171501 | 18 | 238 | 6.4 | 22.5 | 0.00 | 0.00 | 0.00 | 54 | 1012.5 |
| 20260503170105 | 18 | 193 | 4.8 | 16.1 | 0.00 | 0.00 | 0.00 | 53 | 1012.5 |
| 20260503150104 | 18 | 240 | 14.5 | 30.6 | 0.00 | 0.05 | 0.00 | 50 | 1012.4 |
| 20260503140106 | 18 | 201 | 6.4 | 22.5 | 0.00 | 0.05 | 0.00 | 55 | 1013.2 |
| 20260503100123 | 17 | 158 | 6.4 | 12.9 | 0.00 | 0.53 | 0.00 | 69 | 1014.9 |
| 20260503081607 | 13 | 256 | 1.6 | 9.7 | 0.00 | 0.86 | 0.00 | 81 | 1015.3 |
| 20260503071559 | 13 | 213 | 1.6 | 8.0 | 0.00 | 1.09 | 0.00 | 83 | 1015.1 |
| 20260503054558 | 12 | 275 | 0.0 | 6.4 | 0.00 | 1.22 | 0.00 | 90 | 1015.0 |
| 20260503053059 | 12 | 326 | 6.4 | 11.3 | 0.00 | 1.22 | 0.00 | 87 | 1014.9 |
| 20260503051559 | 13 | 200 | 0.0 | 4.8 | 0.00 | 1.22 | 0.00 | 88 | 1014.7 |
| 20260503044559 | 13 | 105 | 3.2 | 6.4 | 0.00 | 1.22 | 0.00 | 88 | 1014.6 |
| 20260503043108 | 13 | 63 | 0.0 | 0.0 | 0.00 | 1.22 | 0.00 | 87 | 1014.9 |
| 20260503041559 | 13 | 63 | 1.6 | 6.4 | 0.00 | 1.22 | 0.00 | 87 | 1014.7 |
| 20260503040104 | 13 | 89 | 1.6 | 4.8 | 0.00 | 1.22 | 0.00 | 87 | 1014.8 |
| 20260503040003 | 13 | 61 | 1.6 | 4.8 | 0.00 | 1.22 | 0.00 | 87 | 1014.8 |
| 20260503034611 | 13 | 62 | 0.0 | 6.4 | 0.00 | 1.22 | 0.00 | 88 | 1015.0 |
| 20260503033059 | 13 | 51 | 4.8 | 8.0 | 0.00 | 1.22 | 0.00 | 88 | 1015.1 |
| 20260503031558 | 13 | 75 | 3.2 | 8.0 | 0.00 | 1.22 | 0.00 | 88 | 1015.3 |
| 20260503030059 | 13 | 52 | 3.2 | 6.4 | 0.00 | 1.22 | 0.00 | 87 | 1015.4 |
| 20260503024559 | 13 | 42 | 3.2 | 9.7 | 0.00 | 1.22 | 0.00 | 87 | 1015.5 |
| 20260503023100 | 13 | 85 | 1.6 | 8.0 | 0.00 | 1.22 | 0.00 | 86 | 1015.5 |
| 20260503021559 | 14 | 65 | 1.6 | 4.8 | 0.00 | 1.22 | 0.00 | 85 | 1015.5 |
| 20260503020059 | 14 | 69 | 1.6 | 4.8 | 0.00 | 1.22 | 0.00 | 85 | 1015.5 |
| 20260503014615 | 14 | 58 | 0.0 | 1.6 | 0.00 | 1.22 | 0.00 | 86 | 1015.5 |
| 20260503013058 | 14 | 38 | 0.0 | 0.0 | 0.00 | 1.22 | 0.00 | 86 | 1015.5 |
| 20260503011558 | 14 | 83 | 0.0 | 0.0 | 0.00 | 1.22 | 0.00 | 84 | 1015.7 |
| 20260503010104 | 15 | 83 | 0.0 | 0.0 | 0.00 | 1.22 | 0.00 | 83 | 1015.6 |
| 20260503004558 | 15 | 84 | 0.0 | 1.6 | 0.00 | 1.22 | 0.00 | 82 | 1016.0 |
| 20260503003106 | 15 | 83 | 0.0 | 1.6 | 0.00 | 1.22 | 0.00 | 83 | 1016.0 |
| 20260503001612 | 15 | 81 | 0.0 | 1.6 | 0.00 | 1.22 | 0.00 | 83 | 1016.1 |
| 20260502234559 | 15 | 96 | 1.6 | 3.2 | 0.00 | 1.22 | 0.00 | 84 | 1016.4 |
| 20260502233100 | 14 | 11 | 0.0 | 3.2 | 0.00 | 1.22 | 0.00 | 84 | 1016.4 |
| 20260502231603 | 14 | 11 | 3.2 | 6.4 | 0.00 | 1.22 | 0.00 | 84 | 1016.4 |
| 20260502230059 | 15 | 17 | 3.2 | 6.4 | 0.00 | 1.22 | 0.00 | 83 | 1016.4 |
| 20260502230001 | 15 | 331 | 1.6 | 6.4 | 0.00 | 1.22 | 0.00 | 82 | 1016.4 |
| 20260502224500 | 15 | 322 | 3.2 | 4.8 | 0.00 | 1.22 | 0.00 | 79 | 1016.6 |
| 20260502223101 | 16 | 240 | 1.6 | 6.4 | 0.00 | 1.22 | 0.00 | 77 | 1016.4 |
| 20260502221500 | 16 | 152 | 3.2 | 8.0 | 0.00 | 1.22 | 0.00 | 77 | 1016.5 |
| 20260502220100 | 15 | 191 | 3.2 | 8.0 | 0.00 | 1.22 | 0.00 | 77 | 1016.6 |
| 20260502214606 | 15 | 167 | 3.2 | 8.0 | 0.00 | 1.22 | 1.22 | 78 | 1016.7 |
| 20260502213059 | 15 | 217 | 1.6 | 6.4 | 0.00 | 1.22 | 1.22 | 78 | 1016.6 |
| 20260502211600 | 15 | 176 | 1.6 | 4.8 | 0.00 | 1.22 | 1.22 | 79 | 1016.5 |
| 20260502210128 | 15 | 158 | 1.6 | 4.8 | 0.00 | 1.22 | 1.22 | 80 | 1016.3 |
| 20260502204559 | 15 | 169 | 1.6 | 4.8 | 0.00 | 1.22 | 1.22 | 81 | 1016.5 |